User: anonymous   Login
Location: Kawakawa
(35.3830°S, 174.0670°E)
Time: 08:11:08
(UTC+13:00)
Language:

CZ-2D R/B - Orbit

View from above orbital plane
View from above orbital plane
View from above satellite
View from above satellite

Ground track
Ground track

The orbit data is extracted from the following two-line orbital elements,

1 28738U 05024B   19293.01841049  .00000297  00000-0  21021-4 0  9998
2 28738  97.4059 318.3111 0010547 302.0354  57.9852 15.11886404784942
Epoch (UTC): 20 October 2019 00:26:30
Eccentricity: 0.0010547
inclination: 97.4059°
perigee height: 523 km
apogee height: 538 km
right ascension of ascending node: 318.3111°
argument of perigee: 302.0354°
revolutions per day: 15.11886404
mean anomaly at epoch: 57.9852°
orbit number at epoch: 78494

The dashed part of the orbit path shows where the satellite is in the earth's shadow,  

DLR